Kenansville, NC

2:58 PM EST on November 20, 2017 (GMT -0500)
Duplin County

Weather History for KDPL - October, 2013

Change the Weather History Date:

Thursday, October 17, 2013

  Actual Average (KOAJ) Record (KOAJ)
Temperature  
Mean Temperature 67 °F -  
Max Temperature 79 °F 70 °F 84 °F (2011)
Min Temperature 55 °F 48 °F 37 °F (2010)
Cooling Degree Days 2    
Growing Degree Days 17 (Base 50)    
Moisture  
Dew Point 60 °F    
Average Humidity 82    
Maximum Humidity 97    
Minimum Humidity 54    
Precipitation  
Precipitation 0.00 in - - ()
Sea Level Pressure  
Sea Level Pressure 29.94 in    
Wind  
Wind Speed 1 mph (SW)    
Max Wind Speed 10 mph    
Max Gust Speed 9 mph    
Visibility 8 miles    
Events      
Averages and records for this station are not official NWS values.
T = Trace of Precipitation, MM = Missing Value Source: NWS Daily Summary

Daily Weather History Graph

Daily Weather History Graph

Search for Another Location

Airport or City:

Trip Planner

Search our weather history database for the weather conditions in past years. The results will help you decide how hot, cold, wet, or windy it might be!

Date:

Astronomy

Oct. 17, 2013 Rise Set
Actual Time 7:19 AM EDT 6:34 PM EDT
Civil Twilight 6:54 AM EDT 6:59 PM EDT
Nautical Twilight 6:24 AM EDT 7:29 PM EDT
Astronomical Twilight 5:55 AM EDT 7:58 PM EDT
Moon 5:45 PM EDT (10/17) 5:52 AM EDT (10/17)
Length of Visible Light 12h 05m
Length of Day
11h 14m
Waxing Gibbous, 98% of the Moon is Illuminated
Oct 17
Waxing Gibbous
Oct 18
Full
Oct 26
Last Quarter
Nov 3
New
Nov 10
First Quarter

Hourly Weather History & Observations

Time (EDT) Temp. Dew Point Humidity Pressure Visibility Wind Dir Wind Speed Gust Speed Precip Events Conditions
12:15 AM 59.7 °F 58.6 °F 96% 29.99 in 7.0 mi Calm Calm - N/A   Clear
12:35 AM 59.9 °F 58.8 °F 96% 29.99 in 7.0 mi Calm Calm - N/A   Clear
12:55 AM 59.5 °F 58.5 °F 96% 29.98 in 7.0 mi Calm Calm - N/A   Clear
1:15 AM 59.2 °F 58.3 °F 97% 29.98 in 5.0 mi Calm Calm - N/A   Clear
1:35 AM 58.5 °F 57.6 °F 97% 29.98 in 5.0 mi Calm Calm - N/A   Clear
1:55 AM 58.3 °F 57.4 °F 97% 29.98 in 3.0 mi Calm Calm - N/A   Clear
2:15 AM 57.6 °F 56.7 °F 97% 29.98 in 5.0 mi Calm Calm - N/A   Clear
2:35 AM 57.4 °F 56.5 °F 97% 29.97 in 7.0 mi Calm Calm - N/A   Clear
2:55 AM 57.2 °F 56.3 °F 97% 29.97 in 7.0 mi Calm Calm - N/A   Clear
3:15 AM 57.2 °F 56.3 °F 97% 29.96 in 7.0 mi Calm Calm - N/A   Clear
3:35 AM 57.2 °F 56.3 °F 97% 29.95 in 7.0 mi Calm Calm - N/A   Clear
3:55 AM 56.7 °F 55.8 °F 97% 29.95 in 7.0 mi Calm Calm - N/A   Clear
4:15 AM 56.7 °F 55.8 °F 97% 29.95 in 5.0 mi Calm Calm - N/A   Clear
4:35 AM 56.3 °F 55.4 °F 97% 29.95 in 5.0 mi Calm Calm - N/A   Clear
4:55 AM 55.9 °F 55.2 °F 97% 29.95 in 7.0 mi Calm Calm - N/A   Clear
5:15 AM 55.8 °F 54.9 °F 97% 29.95 in 7.0 mi Calm Calm - N/A   Clear
5:35 AM 55.6 °F 54.7 °F 97% 29.95 in 5.0 mi Calm Calm - N/A   Clear
5:55 AM 55.4 °F 54.5 °F 97% 29.95 in 5.0 mi Calm Calm - N/A   Scattered Clouds
6:15 AM 55.4 °F 54.5 °F 97% 29.96 in 5.0 mi Calm Calm - N/A   Clear
6:35 AM 56.3 °F 55.6 °F 97% 29.97 in 5.0 mi Calm Calm - N/A   Scattered Clouds
6:55 AM 56.3 °F 55.4 °F 97% 29.97 in 7.0 mi Calm Calm - N/A   Clear
7:15 AM 56.7 °F 55.8 °F 97% 29.97 in 7.0 mi Calm Calm - N/A   Unknown
7:35 AM 57.4 °F 56.5 °F 97% 29.97 in 5.0 mi Calm Calm - N/A   Mist
7:55 AM 58.3 °F 57.4 °F 97% 29.97 in 5.0 mi Calm Calm - N/A   Mist
8:15 AM 59.2 °F 58.3 °F 97% 29.98 in 4.0 mi Calm Calm - N/A   Mist
8:35 AM 59.9 °F 59.0 °F 97% 29.98 in 4.0 mi Calm Calm - N/A   Clear
8:55 AM 61.0 °F 59.9 °F 96% 29.98 in 5.0 mi Calm Calm - N/A   Clear
9:15 AM 62.4 °F 61.0 °F 95% 29.99 in 7.0 mi SW 3.5 mph - N/A   Clear
9:35 AM 63.5 °F 61.2 °F 92% 29.99 in 7.0 mi Calm Calm - N/A   Clear
9:55 AM 65.1 °F 62.1 °F 90% 29.99 in 10.0 mi SW 3.5 mph - N/A   Clear
10:15 AM 67.1 °F 62.6 °F 85% 29.99 in 10.0 mi SW 4.6 mph - N/A   Clear
10:35 AM 70.0 °F 62.6 °F 77% 29.99 in 10.0 mi SW 4.6 mph - N/A   Clear
10:55 AM 70.7 °F 62.4 °F 75% 29.99 in 10.0 mi SW 5.8 mph - N/A   Clear
11:15 AM 72.7 °F 62.2 °F 70% 29.98 in 10.0 mi WSW 4.6 mph - N/A   Clear
11:35 AM 73.9 °F 61.9 °F 66% 29.98 in 10.0 mi SW 4.6 mph - N/A   Clear
11:55 AM 74.5 °F 61.5 °F 64% 29.97 in 10.0 mi SW 5.8 mph - N/A   Clear
12:15 PM 75.4 °F 61.5 °F 62% 29.97 in 10.0 mi SW 3.5 mph - N/A   Clear
12:35 PM 77.0 °F 61.9 °F 59% 29.96 in 10.0 mi Calm Calm - N/A   Scattered Clouds
12:55 PM 75.6 °F 61.0 °F 60% 29.95 in 10.0 mi SW 3.5 mph - N/A   Scattered Clouds
1:15 PM 76.1 °F 61.3 °F 60% 29.94 in 10.0 mi WSW 8.1 mph - N/A   Scattered Clouds
1:35 PM 78.6 °F 61.5 °F 56% 29.93 in 10.0 mi WSW 9.2 mph - N/A   Mostly Cloudy
1:55 PM 76.3 °F 61.5 °F 60% 29.92 in 10.0 mi SW 4.6 mph - N/A   Scattered Clouds
2:15 PM 78.6 °F 61.7 °F 56% 29.91 in 10.0 mi SW 5.8 mph 9.2 mph N/A   Mostly Cloudy
2:35 PM 79.0 °F 61.5 °F 55% 29.90 in 10.0 mi SW 5.8 mph - N/A   Scattered Clouds
2:55 PM 77.7 °F 61.7 °F 58% 29.90 in 10.0 mi SW 8.1 mph - N/A   Mostly Cloudy
3:15 PM 78.8 °F 61.0 °F 54% 29.90 in 10.0 mi SW 5.8 mph - N/A   Scattered Clouds
3:35 PM 78.6 °F 61.0 °F 55% 29.90 in 10.0 mi WSW 10.4 mph - N/A   Scattered Clouds
3:55 PM 77.4 °F 61.2 °F 57% 29.89 in 10.0 mi WSW 6.9 mph - N/A   Mostly Cloudy
4:15 PM 78.1 °F 61.5 °F 57% 29.88 in 10.0 mi WSW 3.5 mph - N/A   Mostly Cloudy
4:35 PM 78.6 °F 61.0 °F 55% 29.88 in 10.0 mi WSW 8.1 mph - N/A   Scattered Clouds
4:55 PM 78.3 °F 61.5 °F 56% 29.89 in 10.0 mi SW 6.9 mph - N/A   Scattered Clouds
5:15 PM 77.0 °F 62.1 °F 60% 29.88 in 10.0 mi SW 4.6 mph - N/A   Scattered Clouds
5:35 PM 75.9 °F 63.3 °F 65% 29.88 in 10.0 mi Calm Calm - N/A   Clear
5:55 PM 74.7 °F 64.0 °F 69% 29.88 in 10.0 mi Calm Calm - N/A   Clear
6:15 PM 71.2 °F 65.3 °F 81% 29.88 in 10.0 mi Calm Calm - N/A   Clear
6:35 PM 69.6 °F 65.7 °F 87% 29.89 in 10.0 mi Calm Calm - N/A   Clear
6:55 PM 68.5 °F 65.3 °F 89% 29.89 in 7.0 mi Calm Calm - N/A   Scattered Clouds
7:15 PM 67.6 °F 64.9 °F 91% 29.89 in 10.0 mi Calm Calm - N/A   Scattered Clouds
7:35 PM 68.5 °F 64.9 °F 88% 29.89 in 10.0 mi Calm Calm - N/A   Clear
7:55 PM 69.8 °F 64.8 °F 84% 29.89 in 10.0 mi Calm Calm - N/A   Clear
8:15 PM 70.0 °F 64.8 °F 83% 29.90 in 10.0 mi Calm Calm - N/A   Clear
8:35 PM 70.5 °F 64.2 °F 80% 29.91 in 10.0 mi Calm Calm - N/A   Clear
8:55 PM 70.0 °F 63.7 °F 80% 29.91 in 10.0 mi Calm Calm - N/A   Mostly Cloudy
9:15 PM 69.8 °F 63.5 °F 80% 29.90 in 10.0 mi Calm Calm - N/A   Overcast
9:35 PM 69.6 °F 63.5 °F 81% 29.90 in 10.0 mi Calm Calm - N/A   Overcast
9:55 PM 69.3 °F 63.3 °F 81% 29.91 in 10.0 mi SW 3.5 mph - N/A   Overcast
10:15 PM 69.1 °F 63.3 °F 82% 29.91 in 10.0 mi Calm Calm - N/A   Overcast
10:35 PM 68.9 °F 63.5 °F 83% 29.91 in 10.0 mi Calm Calm - N/A   Overcast
10:55 PM 68.9 °F 63.5 °F 83% 29.91 in 10.0 mi Calm Calm - N/A   Overcast
11:15 PM 68.5 °F 63.5 °F 84% 29.91 in 10.0 mi Calm Calm - N/A   Overcast
11:35 PM 68.9 °F 63.7 °F 83% 29.91 in 10.0 mi Calm Calm - N/A   Overcast
11:55 PM 68.5 °F 63.9 °F 85% 29.91 in 10.0 mi SW 3.5 mph - N/A   Overcast